Weather History for KPOV - June, 2013

Change the Weather History Date:

Sunday, June 30, 2013

  Actual Average (KCAK) Record (KCAK)
Temperature  
Mean Temperature 69 °F 71 °F  
Max Temperature 77 °F 81 °F 96 °F (1913)
Min Temperature 61 °F 61 °F 46 °F (1899)
Degree Days  
Heating Degree Days 0 0  
Month to date heating degree days 51  
Since 1 June heating degree days 49  
Since 1 July heating degree days 6150  
Cooling Degree Days 4 7  
Month to date cooling degree days 135  
Year to date cooling degree days 177  
Since 1 June cooling degree days 135  
Growing Degree Days 19 (Base 50)    
Moisture  
Dew Point 63 °F    
Average Humidity 86    
Maximum Humidity 100    
Minimum Humidity 62    
Precipitation  
Precipitation 0.00 in 0.13 in 0.68 in (1977)
Month to date precipitation 3.83  
Year to date precipitation 19.56  
Snow  
Snow 0.00 in 0.00 in - ()
Month to date snowfall 0.0  
Since 1 June snowfall 0.0  
Since 1 July snowfall 47.5  
Snow Depth -    
Sea Level Pressure  
Sea Level Pressure 29.81 in    
Wind  
Wind Speed 4 mph (NE)    
Max Wind Speed 10 mph    
Max Gust Speed 16 mph    
Visibility 9 miles    
Events      
T = Trace of Precipitation, MM = Missing Value Source: NWS Daily Summary

Daily Weather History Graph

Daily Weather History Graph

Search for Another Location

Airport or City:

Trip Planner

Search our weather history database for the weather conditions in past years. The results will help you decide how hot, cold, wet, or windy it might be!

Date:

Astronomy

Jun. 30, 2013 Rise Set
Actual Time 5:55 AM EDT 9:01 PM EDT
Civil Twilight 5:21 AM EDT 9:35 PM EDT
Nautical Twilight 4:38 AM EDT 10:18 PM EDT
Astronomical Twilight 3:47 AM EDT 11:09 PM EDT
Moon 12:56 AM EDT (6/30) 2:12 PM EDT (6/30)
Length of Visible Light 16h 13m
Length of Day
15h 06m
Last Quarter, 45% of the Moon is Illuminated
Jun 30
Last Quarter
Jul 8
New
Jul 15
First Quarter
Jul 22
Full
Jul 29
Last Quarter

Hourly Weather History & Observations

Time (EDT) Temp. Dew Point Humidity Pressure Visibility Wind Dir Wind Speed Gust Speed Precip Events Conditions
12:13 AM 64.8 °F 64.9 °F 100% 29.72 in 7.0 mi NE 4.6 mph - N/A   Light Drizzle
12:33 AM 64.6 °F 64.8 °F 100% 29.72 in 10.0 mi NE 3.5 mph - N/A   Overcast
12:53 AM 64.4 °F 64.6 °F 100% 29.73 in 7.0 mi Calm Calm - N/A   Overcast
1:14 AM 64.0 °F 64.2 °F 100% 29.73 in 10.0 mi Calm Calm - N/A   Mostly Cloudy
1:33 AM 63.9 °F 64.0 °F 100% 29.73 in 10.0 mi Calm Calm - N/A   Overcast
1:53 AM 63.7 °F 63.7 °F 100% 29.73 in 7.0 mi Calm Calm - N/A   Overcast
2:13 AM 63.5 °F 63.5 °F 100% 29.73 in 10.0 mi NNE 4.6 mph - N/A   Scattered Clouds
2:33 AM 62.6 °F 62.8 °F 100% 29.74 in 5.0 mi Calm Calm - N/A   Clear
2:54 AM 62.4 °F 62.4 °F 100% 29.73 in 5.0 mi Calm Calm - N/A   Clear
3:14 AM 61.7 °F 61.9 °F 100% 29.73 in 4.0 mi Calm Calm - N/A   Clear
3:33 AM 62.1 °F 62.2 °F 100% 29.73 in 7.0 mi Calm Calm - N/A   Clear
3:53 AM - - N/A% 29.74 in 7.0 mi Calm Calm - N/A   Scattered Clouds
4:14 AM 61.9 °F 62.1 °F 100% 29.74 in 7.0 mi NNE 3.5 mph - N/A   Mostly Cloudy
4:33 AM 62.4 °F 62.6 °F 100% 29.73 in 10.0 mi NNE 4.6 mph - N/A   Scattered Clouds
4:53 AM - - N/A% 29.74 in 10.0 mi Calm Calm - N/A   Clear
5:14 AM 62.4 °F 62.6 °F 100% 29.74 in 10.0 mi NE 5.8 mph - N/A   Clear
5:33 AM 62.6 °F 62.6 °F 100% 29.74 in 10.0 mi NNE 3.5 mph - N/A   Clear
5:53 AM - - N/A% 29.76 in 7.0 mi Calm Calm - N/A   Clear
6:14 AM 61.2 °F 61.3 °F 100% 29.77 in 5.0 mi Calm Calm - N/A   Scattered Clouds
6:33 AM 62.4 °F 62.6 °F 100% 29.77 in 7.0 mi NE 6.9 mph - N/A   Scattered Clouds
6:53 AM 63.5 °F 63.5 °F 100% 29.78 in 7.0 mi ENE 5.8 mph - N/A   Clear
7:13 AM 63.5 °F 63.7 °F 100% 29.78 in 10.0 mi NE 6.9 mph - N/A   Scattered Clouds
7:34 AM 63.7 °F 63.9 °F 100% 29.78 in 10.0 mi NE 8.1 mph - N/A   Scattered Clouds
7:53 AM 64.4 °F 64.6 °F 100% 29.79 in 10.0 mi NE 8.1 mph - N/A   Scattered Clouds
8:14 AM 64.9 °F 65.1 °F 100% 29.80 in 10.0 mi ENE 6.9 mph - N/A   Overcast
8:33 AM 66.0 °F 66.2 °F 100% 29.81 in 10.0 mi ENE 8.1 mph - N/A   Overcast
8:54 AM 66.2 °F 66.4 °F 100% 29.81 in 10.0 mi East 6.9 mph - N/A   Overcast
9:13 AM 65.7 °F 65.8 °F 100% 29.81 in 10.0 mi NE 4.6 mph - N/A   Overcast
9:34 AM 66.4 °F 66.4 °F 100% 29.81 in 10.0 mi NE 4.6 mph - N/A   Mostly Cloudy
9:53 AM 66.9 °F 66.7 °F 99% 29.81 in 10.0 mi NE 5.8 mph - N/A   Scattered Clouds
10:13 AM 67.3 °F 66.4 °F 97% 29.81 in 10.0 mi NE 5.8 mph - N/A   Scattered Clouds
10:33 AM 67.6 °F 66.6 °F 96% 29.82 in 10.0 mi East 4.6 mph - N/A   Mostly Cloudy
10:53 AM 68.0 °F 66.2 °F 94% 29.82 in 10.0 mi East 4.6 mph - N/A   Overcast
11:14 AM 68.4 °F 66.0 °F 92% 29.83 in 10.0 mi East 4.6 mph - N/A   Mostly Cloudy
11:33 AM 69.1 °F 64.0 °F 84% 29.83 in 10.0 mi East 4.6 mph - N/A   Mostly Cloudy
11:54 AM 70.3 °F 64.4 °F 81% 29.83 in 10.0 mi Calm Calm - N/A   Mostly Cloudy
12:14 PM 70.0 °F 63.3 °F 79% 29.83 in 10.0 mi Calm Calm - N/A   Mostly Cloudy
12:33 PM 70.2 °F 63.3 °F 79% 29.83 in 10.0 mi Calm Calm - N/A   Overcast
12:54 PM 71.2 °F 64.9 °F 80% 29.83 in 10.0 mi ENE 5.8 mph - N/A   Overcast
1:14 PM 73.6 °F 65.5 °F 76% 29.83 in 10.0 mi ENE 8.1 mph - N/A   Overcast
1:33 PM 73.2 °F 64.8 °F 75% 29.83 in 10.0 mi North 6.9 mph - N/A   Mostly Cloudy
1:53 PM 72.9 °F 64.0 °F 74% 29.83 in 10.0 mi Calm Calm - N/A   Overcast
2:13 PM 72.9 °F 64.2 °F 74% 29.83 in 10.0 mi North 4.6 mph - N/A   Overcast
2:33 PM 73.8 °F 64.6 °F 73% 29.83 in 10.0 mi North 6.9 mph - N/A   Scattered Clouds
2:53 PM 74.7 °F 62.8 °F 66% 29.83 in 10.0 mi North 4.6 mph - N/A   Clear
3:14 PM 74.5 °F 64.0 °F 70% 29.83 in 10.0 mi North 8.1 mph - N/A   Scattered Clouds
3:33 PM 76.6 °F 63.3 °F 63% 29.82 in 10.0 mi NNE 5.8 mph - N/A   Scattered Clouds
3:54 PM 75.4 °F 61.9 °F 63% 29.82 in 10.0 mi North 4.6 mph - N/A   Scattered Clouds
4:13 PM 77.0 °F 64.8 °F 66% 29.82 in 10.0 mi North 5.8 mph - N/A   Mostly Cloudy
4:34 PM 76.8 °F 63.0 °F 62% 29.82 in 10.0 mi NNE 5.8 mph - N/A   Mostly Cloudy
4:53 PM 76.1 °F 63.0 °F 64% 29.83 in 10.0 mi NNE 8.1 mph - N/A   Scattered Clouds
5:13 PM 74.7 °F 62.2 °F 65% 29.83 in 10.0 mi NE 8.1 mph - N/A   Scattered Clouds
5:33 PM 74.5 °F 64.0 °F 70% 29.83 in 10.0 mi NE 9.2 mph - N/A   Mostly Cloudy
5:54 PM 74.5 °F 63.5 °F 68% 29.83 in 10.0 mi North 9.2 mph 16.1 mph N/A   Mostly Cloudy
6:13 PM 75.2 °F 63.7 °F 67% 29.84 in 10.0 mi NE 10.4 mph - N/A   Scattered Clouds
6:33 PM 71.8 °F 62.2 °F 72% 29.85 in 10.0 mi NNE 6.9 mph - N/A   Scattered Clouds
6:53 PM 72.5 °F 62.4 °F 71% 29.85 in 10.0 mi NE 6.9 mph - N/A   Scattered Clouds
7:14 PM 73.4 °F 62.8 °F 69% 29.86 in 10.0 mi North 6.9 mph - N/A   Clear
7:33 PM 71.8 °F 61.7 °F 70% 29.87 in 10.0 mi North 6.9 mph - N/A   Clear
7:53 PM 70.9 °F 62.1 °F 74% 29.87 in 10.0 mi NNE 5.8 mph - N/A   Clear
8:14 PM 69.8 °F 61.9 °F 76% 29.88 in 10.0 mi North 5.8 mph - N/A   Clear
8:33 PM 69.1 °F 61.3 °F 76% 29.88 in 10.0 mi North 4.6 mph - N/A   Clear
8:53 PM 68.2 °F 61.3 °F 79% 29.88 in 10.0 mi NNE 6.9 mph - N/A   Clear
9:13 PM 68.0 °F 61.2 °F 79% 29.88 in 10.0 mi North 6.9 mph - N/A   Clear
9:33 PM 67.5 °F 61.2 °F 80% 29.89 in 10.0 mi NNE 3.5 mph - N/A   Clear
9:54 PM 67.1 °F 61.3 °F 82% 29.89 in 10.0 mi NNE 3.5 mph - N/A   Clear
10:14 PM 66.4 °F 60.8 °F 82% 29.90 in 10.0 mi NE 5.8 mph - N/A   Clear
10:33 PM 65.8 °F 60.3 °F 82% 29.90 in 10.0 mi NNE 4.6 mph - N/A   Clear
10:53 PM 65.3 °F 60.4 °F 84% 29.91 in 10.0 mi NNE 3.5 mph - N/A   Clear
11:14 PM 65.3 °F 60.3 °F 84% 29.91 in 10.0 mi NNE 5.8 mph - N/A   Scattered Clouds
11:33 PM 65.3 °F 60.8 °F 85% 29.91 in 10.0 mi NE 4.6 mph - N/A   Scattered Clouds
11:53 PM 64.8 °F 61.7 °F 90% 29.90 in 10.0 mi NNE 5.8 mph - N/A   Clear